STARLINK-3059, 49181

Orbit data source: Space-Track

STARLINK-3059, 49181 is a payload satellite owned by SpaceX/Seattle (US) in LEO that was launched on Tue, 14 Sep 2021 UTC via an FALCON 9 launch vehicle from the Air Force Western Test Range (AFWTR). Payload-class satellites include a variety of spacecraft equipped with specific instruments for various scientific and technological missions. These include communications satellites like Starlink; space stations such as the ISS; scientific satellites like the Hubble; Earth observation satellites from companies like Planet Labs, Umbra, and HawkEye 360; GPS; miniature CubeSats for education and research; and military/defense satellites.

Loading next visibility...
Identifier
49181, 2021-082BD
Orbit
LEO
Country
Flag of USUS
Related business
Manufacturer
SpaceX/Seattle
Mission
Operational Commercial Communications
Bus & Motor
STARLINK, Unknown motor
Mass
297 kg wet, ~275 kg dry
Launch date (UTC)
2021-09-14 (5 years ago)
Launch vehicle
FALCON 9
Launch site
Air Force Western Test Range (AFWTR)
Object type
Payload
Rocket body
Debris
Shape & HBR
Box + 1 Pan, 10.1 m
Radar Cross Section
13.562 m², Large (>1 m²)

Expand to show TLE details & history
Last TLE update: 2 days ago

TLE from 2 days ago
0 STARLINK-3059
1 49181U 21082BD  26171.34489603 -.00000117  00000-0 -19992-5 0  9996
2 49181  69.9999  35.6281 0002709 269.9172  90.1677 14.98330406262542
Epoch: 2026-06-20T08:16Z
TLE epoch observation values (Epoch: 2026-06-20T08:16:39.016Z)
Latitude
0.00004°
Longitude
2.90469°
Altitude
574.485 km
Speed
7.574 km/s
True Right ascension
02h 22m 30s
True Declination
0° 00' 00"
Sunlit
Object was in daylight at epoch
Visualization orbit readout
Latitude
Unknown
Longitude
Unknown
Altitude
Unknown
Speed
Unknown
Apparent Right ascension
Unknown
Apparent Declination
Unknown
Sunlit
N/A
Visualization observer readout
Local Sidereal Time
21:38:04
Azimuth
Unknown
Elevation
Unknown
Doppler factor
Unknown
Orbital elements
Apogee altitude
571.885 km
Perigee altitude
568.121 km
Semi-major axis
6,948.14 km
Eccentricity
0.00027
Inclination
69.9999°
RAAN
35.6281°
Arg. of periapsis
269.9172°
True anomaly
90.19874°
Mean anomaly
90.1677°
Eccentric anomaly
90.18322°
Mean motion
3.74749 °/min
Orbital period
96.06 mins
BSTAR
-0.0000019992
Loading maneuver chart data...
Computing Atmospheric mass density...

Documentation

Showing up to 5 results
|